STARLINK-11548, 62829

Orbit data source: Space-Track

STARLINK-11548, 62829 is a payload satellite owned by SpaceX/Seattle (US) in LEO that was launched on Mon, 27 Jan 2025 UTC via an FALCON 9 launch vehicle from the Air Force Eastern Test Range (AFETR). Payload-class satellites include a variety of spacecraft equipped with specific instruments for various scientific and technological missions. These include communications satellites like Starlink; space stations such as the ISS; scientific satellites like the Hubble; Earth observation satellites from companies like Planet Labs, Umbra, and HawkEye 360; GPS; miniature CubeSats for education and research; and military/defense satellites.

Loading next visibility...
Identifier
62829, 2025-019A
Orbit
LEO
Country
Flag of USUS
Related business
Manufacturer
SpaceX/Seattle
Mission
Operational Commercial Communications
Bus & Motor
STARLINK V2MD, Unknown motor
Mass
960 kg wet, ~910 kg dry
Launch date (UTC)
2025-01-27 (1 year ago)
Launch vehicle
FALCON 9
Launch site
Air Force Eastern Test Range (AFETR)
Object type
Payload
Rocket body
Debris
Shape & HBR
Box + 2 Pan, 18.1 m
Radar Cross Section
36.964 m², Large (>1 m²)

Expand to show TLE details & history
Last TLE update: 8 hours ago

TLE from 8 hours ago
0 STARLINK-11548
1 62829U 25019A   26126.92962281  .00184820  00000-0  14085-2 0  9993
2 62829  42.9987 314.6428 0001784 326.7210  33.3545 15.70899651 73045
Epoch: 2026-05-06T22:18Z
TLE epoch observation values (Epoch: 2026-05-06T22:18:39.410Z)
Latitude
-0.00005°
Longitude
115.19548°
Altitude
355.092 km
Speed
7.699 km/s
True Right ascension
20h 58m 34s
True Declination
0° 00' 00"
Sunlit
Object was in daylight at epoch
Visualization orbit readout
Latitude
Unknown
Longitude
Unknown
Altitude
Unknown
Speed
Unknown
Apparent Right ascension
Unknown
Apparent Declination
Unknown
Sunlit
N/A
Visualization observer readout
Local Sidereal Time
14:42:36
Azimuth
Unknown
Elevation
Unknown
Doppler factor
Unknown
Orbital elements
Apogee altitude
359.508 km
Perigee altitude
357.105 km
Semi-major axis
6,736.443 km
Eccentricity
0.00018
Inclination
42.9987°
RAAN
314.6428°
Arg. of periapsis
326.721°
True anomaly
33.36574°
Mean anomaly
33.3545°
Eccentric anomaly
33.36012°
Mean motion
3.92552 °/min
Orbital period
91.71 mins
BSTAR
0.0014085
Loading maneuver chart data...
Computing Atmospheric mass density...
Loading historical data...
Loading historical data...
Loading historical data...
Loading historical data...
Loading historical data...
Loading historical data...
Loading historical data...

Documentation

Showing up to 5 results
|